Terminal Aerodrome Forecast
Issued by NWS

Home | Current Version | Previous Version | Text Only | Print | Product List | Glossary On
Versions: 1 2 3 4 5 6 7 8 9 10 11 12 13 14 15 16 17 18 19 20 21
000
FTUS41 KPBZ 261741
TAFDUJ
TAF
KDUJ 261741Z 2618/2718 14012G21KT P6SM OVC015
     FM262100 15012KT 6SM -SHRA OVC015
     FM262300 16012G18KT P6SM BKN015
     FM270100 15010KT 6SM -SHRA OVC015
     FM270800 16010KT P6SM VCSH OVC008=

USA.gov is the U.S. government's official web portal to all federal, state and local government web resources and services.